Time,TemperatureF,DewpointF,PressureIn,WindDirection,WindDirectionDegrees,WindSpeedMPH,WindSpeedGustMPH,Humidity,HourlyPrecipIn,Conditions,Clouds,dailyrainin,SoftwareType,DateUTC
2013-07-03 00:01:00,61.2,60.1,30.04,North,0,0.0,0.0,96,0.00,,,0.00,WUHU216HW,2013-07-03 04:01:00,
2013-07-03 00:02:00,61.2,60.1,30.04,North,0,0.0,0.0,96,0.00,,,0.00,WUHU216HW,2013-07-03 04:02:00,
2013-07-03 00:04:00,61.2,60.1,30.04,North,0,0.0,0.0,96,0.00,,,0.00,WUHU216HW,2013-07-03 04:04:00,
2013-07-03 00:05:00,61.2,60.4,30.04,North,0,0.0,0.0,97,0.00,,,0.00,WUHU216HW,2013-07-03 04:05:00,
2013-07-03 00:08:00,61.2,60.4,30.04,North,0,0.0,0.0,97,0.00,,,0.00,WUHU216HW,2013-07-03 04:08:00,
2013-07-03 00:09:00,61.0,60.2,30.04,NNE,23,0.5,0.9,97,0.00,,,0.00,WUHU216HW,2013-07-03 04:09:00,
2013-07-03 00:10:00,61.0,60.2,30.04,NNE,23,0.5,0.9,97,0.00,,,0.00,WUHU216HW,2013-07-03 04:10:00,
2013-07-03 00:15:00,61.0,60.2,30.04,ENE,68,0.1,0.2,97,0.00,,,0.00,WUHU216HW,2013-07-03 04:15:00,
2013-07-03 00:20:00,61.0,60.2,30.04,North,0,0.0,0.0,97,0.00,,,0.00,WUHU216HW,2013-07-03 04:20:00,
2013-07-03 00:25:00,61.0,60.2,30.04,ENE,68,0.2,0.4,97,0.00,,,0.00,WUHU216HW,2013-07-03 04:25:00,
2013-07-03 00:30:00,61.0,60.5,30.04,ENE,68,0.2,0.4,99,0.00,,,0.00,WUHU216HW,2013-07-03 04:30:00,
2013-07-03 00:32:00,61.2,60.7,30.04,North,0,0.0,0.0,99,0.00,,,0.00,WUHU216HW,2013-07-03 04:32:00,
2013-07-03 00:37:00,61.0,60.5,30.04,ENE,68,0.3,0.4,99,0.00,,,0.00,WUHU216HW,2013-07-03 04:37:00,
2013-07-03 00:40:00,61.0,60.5,30.04,ENE,68,0.4,1.3,99,0.00,,,0.00,WUHU216HW,2013-07-03 04:40:00,
2013-07-03 00:45:00,60.8,60.3,30.04,North,0,0.0,0.0,99,0.00,,,0.00,WUHU216HW,2013-07-03 04:45:00,
2013-07-03 00:49:00,60.7,60.2,30.04,North,0,0.0,0.0,99,0.00,,,0.00,WUHU216HW,2013-07-03 04:49:00,
2013-07-03 00:54:00,60.7,60.2,30.04,North,0,0.0,0.0,99,0.00,,,0.00,WUHU216HW,2013-07-03 04:54:00,
2013-07-03 00:56:00,60.7,60.2,30.04,North,0,0.0,0.0,99,0.00,,,0.00,WUHU216HW,2013-07-03 04:56:00,
2013-07-03 00:59:00,60.7,60.2,30.04,North,0,0.0,0.0,99,0.00,,,0.00,WUHU216HW,2013-07-03 04:59:00,
2013-07-03 01:04:00,60.5,60.0,30.04,ENE,68,0.2,0.4,99,0.00,,,0.00,WUHU216HW,2013-07-03 05:04:00,
2013-07-03 01:09:00,60.5,60.4,30.03,ENE,68,0.8,1.1,100,0.00,,,0.00,WUHU216HW,2013-07-03 05:09:00,
2013-07-03 01:11:00,60.5,60.4,30.04,ENE,68,0.8,1.6,100,0.00,,,0.00,WUHU216HW,2013-07-03 05:11:00,
2013-07-03 01:16:00,60.5,60.4,30.03,ENE,68,0.9,1.3,100,0.00,,,0.00,WUHU216HW,2013-07-03 05:16:00,
2013-07-03 01:20:00,60.5,60.4,30.03,ENE,68,0.6,1.1,100,0.00,,,0.00,WUHU216HW,2013-07-03 05:20:00,
2013-07-03 01:25:00,60.5,60.4,30.03,SE,135,0.7,0.9,100,0.00,,,0.00,WUHU216HW,2013-07-03 05:25:00,
2013-07-03 01:30:00,60.7,60.6,30.03,ESE,113,0.4,0.7,100,0.00,,,0.00,WUHU216HW,2013-07-03 05:30:00,
2013-07-03 01:36:00,60.7,60.6,30.03,ESE,113,0.4,0.7,100,0.00,,,0.00,WUHU216HW,2013-07-03 05:36:00,
2013-07-03 01:41:00,60.5,60.4,30.03,North,0,0.0,0.0,100,0.00,,,0.00,WUHU216HW,2013-07-03 05:41:00,
2013-07-03 01:47:00,60.5,60.4,30.03,ESE,113,0.3,0.7,100,0.00,,,0.00,WUHU216HW,2013-07-03 05:47:00,
2013-07-03 01:52:00,60.3,60.2,30.03,East,90,0.8,0.9,100,0.00,,,0.00,WUHU216HW,2013-07-03 05:52:00,
2013-07-03 01:54:00,60.3,60.2,30.03,ESE,113,0.7,0.9,100,0.00,,,0.00,WUHU216HW,2013-07-03 05:54:00,
2013-07-03 01:58:00,60.5,60.4,30.03,East,94,0.9,1.1,100,0.00,,,0.00,WUHU216HW,2013-07-03 05:58:00,
2013-07-03 02:03:00,60.5,60.4,30.02,East,81,1.7,2.0,100,0.00,,,0.00,WUHU216HW,2013-07-03 06:03:00,
2013-07-03 02:08:00,60.7,60.6,30.02,East,90,1.4,1.8,100,0.00,,,0.00,WUHU216HW,2013-07-03 06:08:00,
2013-07-03 02:14:00,60.7,60.6,30.02,ESE,103,2.2,2.5,100,0.00,,,0.00,WUHU216HW,2013-07-03 06:14:00,
2013-07-03 02:16:00,60.8,60.7,30.02,ENE,75,1.9,2.2,100,0.00,,,0.00,WUHU216HW,2013-07-03 06:16:00,
2013-07-03 02:17:00,60.8,60.7,30.02,ESE,103,1.4,2.9,100,0.00,,,0.00,WUHU216HW,2013-07-03 06:17:00,
2013-07-03 02:22:00,60.8,60.7,30.02,ESE,102,2.8,3.4,100,0.00,,,0.00,WUHU216HW,2013-07-03 06:22:00,
2013-07-03 02:27:00,60.8,60.7,30.03,East,90,0.4,0.4,100,0.00,,,0.00,WUHU216HW,2013-07-03 06:27:00,
2013-07-03 02:29:00,60.8,60.7,30.03,East,90,0.2,0.4,100,0.00,,,0.00,WUHU216HW,2013-07-03 06:29:00,
2013-07-03 02:34:00,60.8,60.7,30.03,North,0,0.0,0.0,100,0.00,,,0.00,WUHU216HW,2013-07-03 06:34:00,
2013-07-03 02:40:00,60.7,60.6,30.03,East,90,0.3,0.9,100,0.00,,,0.00,WUHU216HW,2013-07-03 06:40:00,
2013-07-03 02:45:00,60.7,60.6,30.03,ESE,113,1.2,1.6,100,0.00,,,0.00,WUHU216HW,2013-07-03 06:45:00,
2013-07-03 02:46:00,60.8,60.7,30.03,ESE,113,0.9,1.3,100,0.00,,,0.00,WUHU216HW,2013-07-03 06:46:00,
2013-07-03 02:51:00,60.8,60.7,30.02,East,92,0.8,1.1,100,0.00,,,0.00,WUHU216HW,2013-07-03 06:51:00,
2013-07-03 02:56:00,60.8,60.7,30.02,NNE,23,0.3,0.4,100,0.00,,,0.00,WUHU216HW,2013-07-03 06:56:00,
2013-07-03 03:01:00,60.8,60.7,30.02,NNE,23,0.1,0.4,100,0.00,,,0.00,WUHU216HW,2013-07-03 07:01:00,
2013-07-03 03:07:00,60.7,60.6,30.02,NE,45,0.8,1.1,100,0.00,,,0.00,WUHU216HW,2013-07-03 07:07:00,
2013-07-03 03:12:00,60.5,60.4,30.01,North,0,1.0,1.1,100,0.00,,,0.00,WUHU216HW,2013-07-03 07:12:00,
2013-07-03 03:17:00,60.5,60.4,30.01,ESE,113,0.1,0.4,100,0.00,,,0.00,WUHU216HW,2013-07-03 07:17:00,
2013-07-03 03:22:00,60.5,60.4,30.01,NNE,23,0.1,0.4,100,0.00,,,0.00,WUHU216HW,2013-07-03 07:22:00,
2013-07-03 03:27:00,60.3,60.2,30.01,East,90,1.0,1.1,100,0.00,,,0.00,WUHU216HW,2013-07-03 07:27:00,
2013-07-03 03:32:00,60.1,60.0,30.01,ENE,68,0.9,1.1,100,0.00,,,0.00,WUHU216HW,2013-07-03 07:32:00,
2013-07-03 03:37:00,60.1,60.0,30.01,NE,45,0.1,0.4,100,0.00,,,0.00,WUHU216HW,2013-07-03 07:37:00,
2013-07-03 03:39:00,59.9,59.8,30.01,NE,45,0.1,0.7,100,0.00,,,0.00,WUHU216HW,2013-07-03 07:39:00,
2013-07-03 03:44:00,59.8,59.7,30.01,East,81,1.5,2.2,100,0.00,,,0.00,WUHU216HW,2013-07-03 07:44:00,
2013-07-03 03:49:00,59.8,59.7,30.01,North,0,0.0,0.0,100,0.00,,,0.00,WUHU216HW,2013-07-03 07:49:00,
2013-07-03 03:55:00,59.6,59.5,30.01,North,0,0.0,0.0,100,0.00,,,0.00,WUHU216HW,2013-07-03 07:55:00,
2013-07-03 03:58:00,59.4,59.3,30.01,East,97,1.5,2.2,100,0.00,,,0.00,WUHU216HW,2013-07-03 07:58:00,
2013-07-03 04:05:00,59.6,59.5,30.01,East,90,0.9,1.1,100,0.00,,,0.00,WUHU216HW,2013-07-03 08:05:00,
2013-07-03 04:10:00,59.8,59.7,30.01,East,83,0.9,1.6,100,0.00,,,0.00,WUHU216HW,2013-07-03 08:10:00,
2013-07-03 04:12:00,59.8,59.7,30.01,ENE,68,1.0,1.6,100,0.00,,,0.00,WUHU216HW,2013-07-03 08:12:00,
2013-07-03 04:13:00,59.9,59.8,30.01,ENE,68,0.4,1.6,100,0.00,,,0.00,WUHU216HW,2013-07-03 08:13:00,
2013-07-03 04:15:00,59.9,59.8,30.01,NE,45,0.5,0.7,100,0.00,,,0.00,WUHU216HW,2013-07-03 08:15:00,
2013-07-03 04:19:00,60.1,60.0,30.01,NE,45,0.0,0.2,100,0.00,,,0.00,WUHU216HW,2013-07-03 08:19:00,
2013-07-03 04:24:00,60.1,60.0,30.01,East,84,0.7,0.9,100,0.00,,,0.00,WUHU216HW,2013-07-03 08:24:00,
2013-07-03 04:29:00,59.9,59.8,30.00,North,0,0.0,0.0,100,0.00,,,0.00,WUHU216HW,2013-07-03 08:29:00,
2013-07-03 04:34:00,59.9,59.8,30.00,East,90,0.1,1.1,100,0.00,,,0.00,WUHU216HW,2013-07-03 08:34:00,
2013-07-03 04:39:00,60.1,60.0,30.00,NNE,23,0.7,1.1,100,0.00,,,0.00,WUHU216HW,2013-07-03 08:39:00,
2013-07-03 04:41:00,60.1,60.0,30.00,NNE,23,0.3,0.7,100,0.00,,,0.00,WUHU216HW,2013-07-03 08:41:00,
2013-07-03 04:46:00,60.1,60.0,30.00,East,90,1.0,1.8,100,0.00,,,0.00,WUHU216HW,2013-07-03 08:46:00,
2013-07-03 04:47:00,59.9,59.8,30.00,East,90,0.4,0.7,100,0.00,,,0.00,WUHU216HW,2013-07-03 08:47:00,
2013-07-03 04:52:00,59.9,59.8,30.00,SE,135,1.7,1.8,100,0.00,,,0.00,WUHU216HW,2013-07-03 08:52:00,
2013-07-03 04:55:00,59.9,59.8,30.00,ESE,113,0.6,0.9,100,0.00,,,0.00,WUHU216HW,2013-07-03 08:55:00,
2013-07-03 05:00:00,59.8,59.7,30.00,East,90,0.6,1.6,100,0.00,,,0.00,WUHU216HW,2013-07-03 09:00:00,
2013-07-03 05:05:00,59.8,59.7,30.00,East,90,0.1,0.2,100,0.00,,,0.00,WUHU216HW,2013-07-03 09:05:00,
2013-07-03 05:06:00,59.6,59.5,30.00,North,0,0.0,0.0,100,0.00,,,0.00,WUHU216HW,2013-07-03 09:06:00,
2013-07-03 05:11:00,59.4,59.3,30.00,East,90,0.1,0.4,100,0.00,,,0.00,WUHU216HW,2013-07-03 09:11:00,
2013-07-03 05:16:00,59.4,59.4,30.01,North,0,0.4,0.7,100,0.00,,,0.00,WUHU216HW,2013-07-03 09:16:00,
2013-07-03 05:21:00,59.0,59.0,30.01,North,0,0.5,0.9,100,0.00,,,0.00,WUHU216HW,2013-07-03 09:21:00,
2013-07-03 05:28:00,58.9,58.9,30.01,North,0,0.0,0.0,100,0.00,,,0.00,WUHU216HW,2013-07-03 09:28:00,
2013-07-03 05:33:00,58.7,58.7,30.01,North,0,0.0,0.0,100,0.00,,,0.00,WUHU216HW,2013-07-03 09:33:00,
2013-07-03 05:39:00,58.5,58.5,30.01,NNE,23,0.3,0.9,100,0.00,,,0.00,WUHU216HW,2013-07-03 09:39:00,
2013-07-03 05:43:00,58.5,58.5,30.01,North,0,0.0,0.0,100,0.00,,,0.00,WUHU216HW,2013-07-03 09:43:00,
2013-07-03 05:48:00,58.3,58.3,30.01,North,0,0.0,0.0,100,0.00,,,0.00,WUHU216HW,2013-07-03 09:48:00,
2013-07-03 05:54:00,58.1,58.0,30.01,North,0,0.0,0.0,100,0.00,,,0.00,WUHU216HW,2013-07-03 09:54:00,
2013-07-03 05:55:00,58.1,58.0,30.02,North,0,0.0,0.0,100,0.00,,,0.00,WUHU216HW,2013-07-03 09:55:00,
2013-07-03 06:00:00,58.0,57.9,30.02,North,0,0.0,0.0,100,0.00,,,0.00,WUHU216HW,2013-07-03 10:00:00,
2013-07-03 06:02:00,58.0,57.9,30.02,North,0,0.0,0.0,100,0.00,,,0.00,WUHU216HW,2013-07-03 10:02:00,
2013-07-03 06:05:00,58.0,57.9,30.02,North,0,0.0,0.0,100,0.00,,,0.00,WUHU216HW,2013-07-03 10:05:00,
2013-07-03 06:06:00,58.0,57.9,30.02,North,0,0.0,0.0,100,0.00,,,0.00,WUHU216HW,2013-07-03 10:06:00,
2013-07-03 06:11:00,58.0,57.9,30.02,NNE,23,0.3,0.7,100,0.00,,,0.00,WUHU216HW,2013-07-03 10:11:00,
2013-07-03 06:17:00,58.3,58.3,30.02,ENE,68,0.3,0.4,100,0.00,,,0.00,WUHU216HW,2013-07-03 10:17:00,
2013-07-03 06:22:00,58.5,58.5,30.02,NNE,23,0.3,0.4,100,0.00,,,0.00,WUHU216HW,2013-07-03 10:22:00,
2013-07-03 06:28:00,58.5,58.5,30.02,ENE,74,1.6,2.0,100,0.00,,,0.00,WUHU216HW,2013-07-03 10:28:00,
2013-07-03 06:33:00,58.7,58.7,30.02,East,90,0.2,0.4,100,0.00,,,0.00,WUHU216HW,2013-07-03 10:33:00,
2013-07-03 06:38:00,59.0,59.0,30.02,NE,45,0.6,1.3,100,0.00,,,0.00,WUHU216HW,2013-07-03 10:38:00,
2013-07-03 06:41:00,59.2,59.2,30.03,North,0,0.0,0.0,100,0.00,,,0.00,WUHU216HW,2013-07-03 10:41:00,
2013-07-03 06:47:00,59.6,59.6,30.03,ESE,113,1.0,1.1,100,0.00,,,0.00,WUHU216HW,2013-07-03 10:47:00,
2013-07-03 06:50:00,59.8,59.8,30.03,East,90,1.2,1.6,100,0.00,,,0.00,WUHU216HW,2013-07-03 10:50:00,
2013-07-03 06:56:00,60.1,60.1,30.03,ESE,114,1.0,1.3,100,0.00,,,0.00,WUHU216HW,2013-07-03 10:56:00,
2013-07-03 06:57:00,60.3,60.3,30.03,ESE,118,1.0,1.1,100,0.00,,,0.00,WUHU216HW,2013-07-03 10:57:00,
2013-07-03 07:02:00,60.5,60.5,30.03,North,0,0.0,0.0,100,0.00,,,0.00,WUHU216HW,2013-07-03 11:02:00,
2013-07-03 07:07:00,60.8,60.8,30.03,North,0,0.0,0.0,100,0.00,,,0.00,WUHU216HW,2013-07-03 11:07:00,
2013-07-03 07:08:00,60.8,60.8,30.03,ESE,113,0.2,0.2,100,0.00,,,0.00,WUHU216HW,2013-07-03 11:08:00,
2013-07-03 07:13:00,61.0,61.0,30.03,ESE,113,0.6,0.9,100,0.00,,,0.00,WUHU216HW,2013-07-03 11:13:00,
2013-07-03 07:18:00,61.2,61.2,30.03,ESE,113,0.8,1.1,100,0.00,,,0.00,WUHU216HW,2013-07-03 11:18:00,
2013-07-03 07:21:00,61.4,61.4,30.03,North,0,0.0,0.0,100,0.00,,,0.00,WUHU216HW,2013-07-03 11:21:00,
2013-07-03 07:25:00,61.7,61.7,30.03,East,95,1.0,1.3,100,0.00,,,0.00,WUHU216HW,2013-07-03 11:25:00,
2013-07-03 07:31:00,62.3,62.3,30.03,North,0,0.0,0.0,100,0.00,,,0.00,WUHU216HW,2013-07-03 11:31:00,
2013-07-03 07:34:00,62.6,62.5,30.03,East,90,0.7,1.1,100,0.00,,,0.00,WUHU216HW,2013-07-03 11:34:00,
2013-07-03 07:39:00,63.4,63.3,30.03,East,80,0.9,1.1,100,0.00,,,0.00,WUHU216HW,2013-07-03 11:39:00,
2013-07-03 07:44:00,63.7,63.6,30.03,ENE,68,0.0,0.2,100,0.00,,,0.00,WUHU216HW,2013-07-03 11:44:00,
2013-07-03 07:45:00,63.7,63.6,30.03,ENE,68,0.4,0.7,100,0.00,,,0.00,WUHU216HW,2013-07-03 11:45:00,
2013-07-03 07:51:00,64.1,64.0,30.03,East,90,0.5,1.1,100,0.00,,,0.00,WUHU216HW,2013-07-03 11:51:00,
2013-07-03 07:56:00,64.4,64.3,30.03,East,90,0.0,0.2,100,0.00,,,0.00,WUHU216HW,2013-07-03 11:56:00,
2013-07-03 07:59:00,64.4,63.9,30.03,ENE,78,0.6,1.1,99,0.00,,,0.00,WUHU216HW,2013-07-03 11:59:00,
2013-07-03 08:04:00,65.0,64.5,30.04,NE,56,1.1,1.1,99,0.00,,,0.00,WUHU216HW,2013-07-03 12:04:00,
2013-07-03 08:09:00,65.5,65.4,30.04,SW,225,0.6,1.3,100,0.00,,,0.00,WUHU216HW,2013-07-03 12:09:00,
2013-07-03 08:15:00,66.4,66.3,30.04,East,90,0.8,1.1,100,0.00,,,0.00,WUHU216HW,2013-07-03 12:15:00,
2013-07-03 08:17:00,67.0,66.9,30.04,SE,129,1.3,2.5,100,0.00,,,0.00,WUHU216HW,2013-07-03 12:17:00,
2013-07-03 08:20:00,67.7,67.2,30.04,ESE,103,2.0,2.5,99,0.00,,,0.00,WUHU216HW,2013-07-03 12:20:00,
2013-07-03 08:25:00,68.4,67.6,30.04,East,100,2.3,3.1,97,0.00,,,0.00,WUHU216HW,2013-07-03 12:25:00,
2013-07-03 08:30:00,68.8,67.6,30.04,ESE,113,2.7,3.1,96,0.00,,,0.00,WUHU216HW,2013-07-03 12:30:00,
2013-07-03 08:36:00,69.1,67.9,30.04,SE,127,0.8,1.3,96,0.00,,,0.00,WUHU216HW,2013-07-03 12:36:00,
2013-07-03 08:41:00,69.3,67.8,30.04,SSW,199,0.5,0.7,95,0.00,,,0.00,WUHU216HW,2013-07-03 12:41:00,
2013-07-03 08:46:00,69.3,67.8,30.04,SSE,156,0.4,0.4,95,0.00,,,0.00,WUHU216HW,2013-07-03 12:46:00,
2013-07-03 08:49:00,69.5,68.0,30.04,SE,131,2.0,2.2,95,0.00,,,0.00,WUHU216HW,2013-07-03 12:49:00,
2013-07-03 08:55:00,69.5,68.0,30.05,ESE,113,1.1,1.8,95,0.00,,,0.00,WUHU216HW,2013-07-03 12:55:00,
2013-07-03 09:00:00,69.7,68.2,30.05,ESE,113,1.0,1.3,95,0.00,,,0.00,WUHU216HW,2013-07-03 13:00:00,
2013-07-03 09:06:00,69.8,68.3,30.05,East,87,0.8,1.6,95,0.00,,,0.00,WUHU216HW,2013-07-03 13:06:00,
2013-07-03 09:11:00,70.0,68.5,30.05,SE,126,2.4,3.4,95,0.00,,,0.00,WUHU216HW,2013-07-03 13:11:00,
2013-07-03 09:16:00,70.2,68.3,30.05,ESE,111,4.5,6.5,94,0.00,,,0.00,WUHU216HW,2013-07-03 13:16:00,
2013-07-03 09:22:00,70.2,68.7,30.05,SSE,168,2.2,2.9,95,0.00,,,0.00,WUHU216HW,2013-07-03 13:22:00,
2013-07-03 09:28:00,70.6,69.1,30.05,SW,216,4.5,6.3,95,0.00,,,0.00,WUHU216HW,2013-07-03 13:28:00,
2013-07-03 09:33:00,70.7,69.2,30.05,SSW,193,1.7,2.5,95,0.00,,,0.00,WUHU216HW,2013-07-03 13:33:00,
2013-07-03 09:34:00,70.9,69.4,30.06,WSW,237,1.2,1.6,95,0.00,,,0.00,WUHU216HW,2013-07-03 13:34:00,
2013-07-03 09:39:00,71.3,69.4,30.06,SSW,193,1.7,3.4,94,0.00,,,0.00,WUHU216HW,2013-07-03 13:39:00,
2013-07-03 09:40:00,71.3,69.4,30.06,SSW,204,2.8,3.4,94,0.00,,,0.00,WUHU216HW,2013-07-03 13:40:00,
2013-07-03 09:45:00,71.8,69.9,30.06,SSW,203,1.4,1.6,94,0.00,,,0.00,WUHU216HW,2013-07-03 13:45:00,
2013-07-03 09:50:00,72.0,70.1,30.06,SSW,213,3.8,4.9,94,0.00,,,0.00,WUHU216HW,2013-07-03 13:50:00,
2013-07-03 09:56:00,72.4,70.2,30.06,SSW,204,3.3,5.1,93,0.00,,,0.00,WUHU216HW,2013-07-03 13:56:00,
2013-07-03 10:01:00,72.5,70.3,30.06,West,281,0.6,1.6,93,0.00,,,0.00,WUHU216HW,2013-07-03 14:01:00,
2013-07-03 10:06:00,72.9,70.6,30.06,South,183,1.2,2.2,93,0.00,,,0.00,WUHU216HW,2013-07-03 14:06:00,
2013-07-03 10:09:00,73.1,70.8,30.06,South,173,1.2,1.6,93,0.00,,,0.00,WUHU216HW,2013-07-03 14:09:00,
2013-07-03 10:14:00,73.4,71.1,30.06,WSW,248,0.4,1.1,93,0.00,,,0.00,WUHU216HW,2013-07-03 14:14:00,
2013-07-03 10:20:00,73.6,71.3,30.06,WSW,250,1.2,1.6,93,0.00,,,0.00,WUHU216HW,2013-07-03 14:20:00,
2013-07-03 10:23:00,73.8,71.5,30.06,SSW,201,1.5,2.2,93,0.00,,,0.00,WUHU216HW,2013-07-03 14:23:00,
2013-07-03 10:28:00,74.9,72.3,30.06,SW,223,1.4,2.0,92,0.00,,,0.00,WUHU216HW,2013-07-03 14:28:00,
2013-07-03 10:33:00,75.2,72.2,30.06,SW,225,2.4,3.8,91,0.00,,,0.00,WUHU216HW,2013-07-03 14:33:00,
2013-07-03 10:34:00,75.2,72.2,30.06,SSW,198,1.1,2.0,91,0.00,,,0.00,WUHU216HW,2013-07-03 14:34:00,
2013-07-03 10:39:00,75.2,71.8,30.06,WSW,245,3.3,3.6,89,0.00,,,0.00,WUHU216HW,2013-07-03 14:39:00,
2013-07-03 10:43:00,75.1,71.7,30.06,SSW,212,2.1,2.2,89,0.00,,,0.00,WUHU216HW,2013-07-03 14:43:00,
2013-07-03 10:48:00,74.9,71.5,30.06,WSW,249,2.9,6.0,89,0.00,,,0.00,WUHU216HW,2013-07-03 14:48:00,
2013-07-03 10:53:00,75.8,72.4,30.06,SW,216,5.5,6.3,89,0.00,,,0.00,WUHU216HW,2013-07-03 14:53:00,
2013-07-03 10:57:00,76.3,72.9,30.06,SW,229,2.2,2.9,89,0.00,,,0.00,WUHU216HW,2013-07-03 14:57:00,
2013-07-03 11:01:00,76.7,72.9,30.06,WSW,239,1.2,3.4,88,0.00,,,0.00,WUHU216HW,2013-07-03 15:01:00,
2013-07-03 11:06:00,76.7,72.2,30.06,SSW,204,2.8,5.8,86,0.00,,,0.00,WUHU216HW,2013-07-03 15:06:00,
2013-07-03 11:09:00,76.3,71.8,30.06,SW,227,2.7,4.0,86,0.00,,,0.00,WUHU216HW,2013-07-03 15:09:00,
2013-07-03 11:14:00,76.3,72.2,30.07,WSW,246,5.1,6.3,87,0.00,,,0.00,WUHU216HW,2013-07-03 15:14:00,
2013-07-03 11:15:00,76.3,72.2,30.07,West,264,3.6,4.5,87,0.00,,,0.00,WUHU216HW,2013-07-03 15:15:00,
2013-07-03 11:21:00,76.3,72.2,30.06,South,180,2.3,2.7,87,0.00,,,0.00,WUHU216HW,2013-07-03 15:21:00,
2013-07-03 11:26:00,77.4,73.3,30.07,SSW,202,2.4,4.3,87,0.00,,,0.00,WUHU216HW,2013-07-03 15:26:00,
2013-07-03 11:31:00,77.9,73.4,30.07,SW,221,5.4,6.3,86,0.00,,,0.00,WUHU216HW,2013-07-03 15:31:00,
2013-07-03 11:36:00,78.3,73.8,30.07,SW,214,2.9,3.1,86,0.00,,,0.00,WUHU216HW,2013-07-03 15:36:00,
2013-07-03 11:42:00,78.5,73.2,30.07,SW,225,2.3,6.7,84,0.00,,,0.00,WUHU216HW,2013-07-03 15:42:00,
2013-07-03 11:45:00,78.7,73.8,30.07,SW,219,4.8,5.8,85,0.00,,,0.00,WUHU216HW,2013-07-03 15:45:00,
2013-07-03 11:50:00,78.8,73.5,30.07,WSW,246,3.8,4.7,84,0.00,,,0.00,WUHU216HW,2013-07-03 15:50:00,
2013-07-03 11:52:00,78.5,73.2,30.07,SSW,210,3.1,3.8,84,0.00,,,0.00,WUHU216HW,2013-07-03 15:52:00,
2013-07-03 11:53:00,78.5,73.2,30.07,SW,217,2.7,3.8,84,0.00,,,0.00,WUHU216HW,2013-07-03 15:53:00,
2013-07-03 11:54:00,78.5,73.2,30.07,SW,224,1.8,2.9,84,0.00,,,0.00,WUHU216HW,2013-07-03 15:54:00,
2013-07-03 12:00:00,79.2,74.3,30.07,SW,224,4.7,5.8,85,0.00,,,0.00,WUHU216HW,2013-07-03 16:00:00,
2013-07-03 12:05:00,79.7,74.0,30.07,WSW,241,3.0,4.5,82,0.00,,,0.00,WUHU216HW,2013-07-03 16:05:00,
2013-07-03 12:11:00,80.8,75.0,30.07,SSW,200,3.4,7.6,82,0.00,,,0.00,WUHU216HW,2013-07-03 16:11:00,
2013-07-03 12:16:00,81.0,74.8,30.07,SSE,168,1.9,4.3,81,0.00,,,0.00,WUHU216HW,2013-07-03 16:16:00,
2013-07-03 12:21:00,81.4,75.2,30.07,SSW,206,4.6,5.4,81,0.00,,,0.00,WUHU216HW,2013-07-03 16:21:00,
2013-07-03 12:28:00,82.3,75.7,30.07,WSW,250,5.7,6.0,80,0.00,,,0.00,WUHU216HW,2013-07-03 16:28:00,
2013-07-03 12:33:00,82.1,75.1,30.07,East,87,1.5,2.5,79,0.00,,,0.00,WUHU216HW,2013-07-03 16:33:00,
2013-07-03 12:38:00,81.9,74.9,30.06,SE,130,2.3,4.3,79,0.00,,,0.00,WUHU216HW,2013-07-03 16:38:00,
2013-07-03 12:43:00,82.3,75.3,30.06,West,265,3.1,4.0,79,0.00,,,0.00,WUHU216HW,2013-07-03 16:43:00,
2013-07-03 12:49:00,82.1,74.7,30.06,WSW,246,2.1,4.3,78,0.00,,,0.00,WUHU216HW,2013-07-03 16:49:00,
2013-07-03 12:54:00,82.8,76.2,30.06,SW,228,1.9,2.5,80,0.00,,,0.00,WUHU216HW,2013-07-03 16:54:00,
2013-07-03 12:59:00,83.9,76.4,30.06,SE,133,1.9,3.4,78,0.00,,,0.00,WUHU216HW,2013-07-03 16:59:00,
2013-07-03 13:04:00,83.5,75.6,30.05,SW,221,2.6,3.1,77,0.00,,,0.00,WUHU216HW,2013-07-03 17:04:00,
2013-07-03 13:09:00,83.5,75.6,30.05,SW,236,3.4,4.0,77,0.00,,,0.00,WUHU216HW,2013-07-03 17:09:00,
2013-07-03 13:15:00,83.3,75.4,30.05,SSE,164,1.9,3.4,77,0.00,,,0.00,WUHU216HW,2013-07-03 17:15:00,
2013-07-03 13:21:00,83.2,75.3,30.05,West,267,2.0,2.2,77,0.00,,,0.00,WUHU216HW,2013-07-03 17:21:00,
2013-07-03 13:26:00,82.4,73.6,30.05,WSW,240,2.5,4.0,74,0.00,,,0.00,WUHU216HW,2013-07-03 17:26:00,
2013-07-03 13:32:00,81.9,73.6,30.05,WSW,246,0.8,1.3,76,0.00,,,0.00,WUHU216HW,2013-07-03 17:32:00,
2013-07-03 13:37:00,81.7,73.4,30.05,WSW,248,2.4,3.1,76,0.00,,,0.00,WUHU216HW,2013-07-03 17:37:00,
2013-07-03 13:42:00,82.3,74.8,30.05,SE,138,1.9,2.2,78,0.00,,,0.00,WUHU216HW,2013-07-03 17:42:00,
2013-07-03 13:47:00,83.5,75.6,30.05,WSW,240,2.9,4.0,77,0.00,,,0.00,WUHU216HW,2013-07-03 17:47:00,
2013-07-03 13:53:00,83.2,74.9,30.05,South,182,2.1,2.9,76,0.00,,,0.00,WUHU216HW,2013-07-03 17:53:00,
2013-07-03 13:58:00,83.5,75.2,30.05,SW,227,4.2,5.8,76,0.00,,,0.00,WUHU216HW,2013-07-03 17:58:00,
2013-07-03 14:03:00,83.5,74.7,30.05,WSW,242,2.6,3.4,74,0.00,,,0.00,WUHU216HW,2013-07-03 18:03:00,
2013-07-03 14:09:00,83.7,74.5,30.04,SW,233,5.5,6.3,73,0.00,,,0.00,WUHU216HW,2013-07-03 18:09:00,
2013-07-03 14:14:00,83.7,75.3,30.04,WSW,253,4.1,4.7,76,0.00,,,0.00,WUHU216HW,2013-07-03 18:14:00,
2013-07-03 14:19:00,85.0,76.6,30.04,ENE,63,2.2,2.5,76,0.00,,,0.00,WUHU216HW,2013-07-03 18:19:00,
2013-07-03 14:25:00,85.7,76.4,30.04,SW,219,3.8,4.3,73,0.00,,,0.00,WUHU216HW,2013-07-03 18:25:00,
2013-07-03 14:30:00,86.2,76.9,30.04,WSW,237,4.5,5.8,73,0.00,,,0.00,WUHU216HW,2013-07-03 18:30:00,
2013-07-03 14:36:00,85.3,74.6,30.04,South,170,1.2,2.7,70,0.00,,,0.00,WUHU216HW,2013-07-03 18:36:00,
2013-07-03 14:41:00,84.4,74.2,30.04,SW,214,0.9,1.1,71,0.00,,,0.00,WUHU216HW,2013-07-03 18:41:00,
2013-07-03 14:46:00,85.0,75.7,30.04,SSW,195,2.2,3.4,73,0.00,,,0.00,WUHU216HW,2013-07-03 18:46:00,
2013-07-03 14:51:00,85.3,74.6,30.03,West,260,1.1,1.8,70,0.00,,,0.00,WUHU216HW,2013-07-03 18:51:00,
2013-07-03 14:57:00,84.6,74.4,30.03,SW,230,1.5,3.6,71,0.00,,,0.00,WUHU216HW,2013-07-03 18:57:00,
2013-07-03 15:02:00,85.3,74.6,30.03,SW,229,2.4,4.9,70,0.00,,,0.00,WUHU216HW,2013-07-03 19:02:00,
2013-07-03 15:07:00,85.3,74.6,30.03,South,188,2.7,3.1,70,0.00,,,0.00,WUHU216HW,2013-07-03 19:07:00,
2013-07-03 15:12:00,85.9,75.6,30.03,SSW,200,5.0,5.4,71,0.00,,,0.00,WUHU216HW,2013-07-03 19:12:00,
2013-07-03 15:17:00,86.9,75.1,30.03,West,263,5.3,6.7,68,0.00,,,0.00,WUHU216HW,2013-07-03 19:17:00,
2013-07-03 15:23:00,87.3,75.5,30.02,West,260,3.8,5.6,68,0.00,,,0.00,WUHU216HW,2013-07-03 19:23:00,
2013-07-03 15:28:00,87.5,75.2,30.02,WSW,247,5.3,6.7,66,0.00,,,0.00,WUHU216HW,2013-07-03 19:28:00,
2013-07-03 15:34:00,87.5,74.7,30.03,SW,225,3.3,4.3,65,0.00,,,0.00,WUHU216HW,2013-07-03 19:34:00,
2013-07-03 15:39:00,87.1,74.3,30.03,West,272,4.0,5.8,65,0.00,,,0.00,WUHU216HW,2013-07-03 19:39:00,
2013-07-03 15:45:00,86.2,73.5,30.03,SW,234,0.9,2.2,65,0.00,,,0.00,WUHU216HW,2013-07-03 19:45:00,
2013-07-03 15:50:00,86.0,74.3,30.03,SW,216,3.5,4.7,68,0.00,,,0.00,WUHU216HW,2013-07-03 19:50:00,
2013-07-03 15:55:00,86.9,75.1,30.02,SW,227,1.6,2.5,68,0.00,,,0.00,WUHU216HW,2013-07-03 19:55:00,
2013-07-03 16:01:00,87.5,75.2,30.02,SSW,206,3.6,4.5,66,0.00,,,0.00,WUHU216HW,2013-07-03 20:01:00,
2013-07-03 16:06:00,87.5,75.2,30.02,West,265,4.4,4.7,66,0.00,,,0.00,WUHU216HW,2013-07-03 20:06:00,
2013-07-03 16:11:00,87.3,75.0,30.02,WSW,246,3.1,4.9,66,0.00,,,0.00,WUHU216HW,2013-07-03 20:11:00,
2013-07-03 16:17:00,86.8,74.0,30.02,South,181,2.1,3.1,65,0.00,,,0.00,WUHU216HW,2013-07-03 20:17:00,
2013-07-03 16:22:00,86.4,74.2,30.02,ESE,108,1.3,2.0,66,0.00,,,0.00,WUHU216HW,2013-07-03 20:22:00,
2013-07-03 16:28:00,86.9,75.1,30.02,SSW,201,1.5,2.0,68,0.00,,,0.00,WUHU216HW,2013-07-03 20:28:00,
2013-07-03 16:34:00,87.3,75.0,30.02,SW,217,4.0,4.7,66,0.00,,,0.00,WUHU216HW,2013-07-03 20:34:00,
2013-07-03 16:39:00,87.3,75.0,30.02,SSW,199,1.7,2.9,66,0.00,,,0.00,WUHU216HW,2013-07-03 20:39:00,
2013-07-03 16:44:00,86.2,73.5,30.02,WSW,246,1.0,2.0,65,0.00,,,0.00,WUHU216HW,2013-07-03 20:44:00,
2013-07-03 16:50:00,85.7,73.0,30.01,SW,231,1.7,2.5,65,0.00,,,0.00,WUHU216HW,2013-07-03 20:50:00,
2013-07-03 16:55:00,85.5,73.3,30.01,South,182,2.6,3.8,66,0.00,,,0.00,WUHU216HW,2013-07-03 20:55:00,
2013-07-03 17:01:00,85.3,72.6,30.01,SSW,195,2.3,2.7,65,0.00,,,0.00,WUHU216HW,2013-07-03 21:01:00,
2013-07-03 17:06:00,86.4,74.2,30.01,SE,141,1.6,2.2,66,0.00,,,0.00,WUHU216HW,2013-07-03 21:06:00,
2013-07-03 17:11:00,87.1,74.8,30.01,South,185,3.0,4.3,66,0.00,,,0.00,WUHU216HW,2013-07-03 21:11:00,
2013-07-03 17:16:00,86.6,72.8,30.01,SSW,197,3.8,4.9,63,0.00,,,0.00,WUHU216HW,2013-07-03 21:16:00,
2013-07-03 17:22:00,85.7,72.5,30.01,SE,137,2.4,3.4,64,0.00,,,0.00,WUHU216HW,2013-07-03 21:22:00,
2013-07-03 17:28:00,85.7,73.0,30.01,SSW,212,1.6,2.5,65,0.00,,,0.00,WUHU216HW,2013-07-03 21:28:00,
2013-07-03 17:33:00,86.0,73.3,30.01,SSW,201,4.2,5.4,65,0.00,,,0.00,WUHU216HW,2013-07-03 21:33:00,
2013-07-03 17:38:00,85.5,72.8,30.01,SW,232,2.1,4.7,65,0.00,,,0.00,WUHU216HW,2013-07-03 21:38:00,
2013-07-03 17:43:00,85.7,73.0,30.01,NE,46,2.2,4.0,65,0.00,,,0.00,WUHU216HW,2013-07-03 21:43:00,
2013-07-03 17:48:00,85.3,72.6,30.01,South,186,2.9,3.8,65,0.00,,,0.00,WUHU216HW,2013-07-03 21:48:00,
2013-07-03 17:53:00,84.6,71.9,30.01,SSW,212,2.2,3.8,65,0.00,,,0.00,WUHU216HW,2013-07-03 21:53:00,
2013-07-03 17:59:00,84.1,72.0,30.00,SW,233,1.0,1.3,66,0.00,,,0.00,WUHU216HW,2013-07-03 21:59:00,
2013-07-03 18:04:00,83.9,72.3,30.01,SSW,200,2.0,2.7,68,0.00,,,0.00,WUHU216HW,2013-07-03 22:04:00,
2013-07-03 18:09:00,84.2,73.0,30.00,East,99,0.8,1.1,69,0.00,,,0.00,WUHU216HW,2013-07-03 22:09:00,
2013-07-03 18:15:00,84.2,73.0,30.00,SW,230,0.9,1.3,69,0.00,,,0.00,WUHU216HW,2013-07-03 22:15:00,
2013-07-03 18:20:00,84.4,73.2,30.00,East,100,1.1,3.1,69,0.00,,,0.00,WUHU216HW,2013-07-03 22:20:00,
2013-07-03 18:25:00,83.9,72.8,30.00,South,172,2.0,2.5,69,0.00,,,0.00,WUHU216HW,2013-07-03 22:25:00,
2013-07-03 18:30:00,83.2,71.6,30.00,East,101,1.0,1.1,68,0.00,,,0.00,WUHU216HW,2013-07-03 22:30:00,
2013-07-03 18:35:00,82.4,71.3,30.01,WSW,247,0.7,1.1,69,0.00,,,0.00,WUHU216HW,2013-07-03 22:35:00,
2013-07-03 18:41:00,82.3,71.2,30.01,South,169,1.2,1.3,69,0.00,,,0.00,WUHU216HW,2013-07-03 22:41:00,
2013-07-03 18:46:00,81.7,70.7,30.01,South,172,1.8,3.1,69,0.00,,,0.00,WUHU216HW,2013-07-03 22:46:00,
2013-07-03 18:52:00,81.4,71.3,30.01,WSW,248,0.6,1.1,71,0.00,,,0.00,WUHU216HW,2013-07-03 22:52:00,
2013-07-03 18:57:00,81.0,70.9,30.01,South,176,1.5,2.0,71,0.00,,,0.00,WUHU216HW,2013-07-03 22:57:00,
2013-07-03 19:02:00,80.6,71.0,30.00,East,84,0.9,1.6,72,0.00,,,0.00,WUHU216HW,2013-07-03 23:02:00,
2013-07-03 19:07:00,80.1,70.5,30.00,West,261,1.2,2.5,72,0.00,,,0.00,WUHU216HW,2013-07-03 23:07:00,
2013-07-03 19:13:00,80.1,70.5,30.00,ENE,60,1.1,1.3,72,0.00,,,0.00,WUHU216HW,2013-07-03 23:13:00,
2013-07-03 19:18:00,79.9,70.3,30.00,SSW,205,1.1,1.6,72,0.00,,,0.00,WUHU216HW,2013-07-03 23:18:00,
2013-07-03 19:24:00,79.7,70.6,30.00,SSW,193,2.1,2.9,73,0.00,,,0.00,WUHU216HW,2013-07-03 23:24:00,
2013-07-03 19:29:00,79.4,70.3,30.01,North,0,0.0,0.0,73,0.00,,,0.00,WUHU216HW,2013-07-03 23:29:00,
2013-07-03 19:34:00,79.2,70.5,30.01,West,279,0.3,0.9,74,0.00,,,0.00,WUHU216HW,2013-07-03 23:34:00,
2013-07-03 19:39:00,79.0,70.4,30.01,South,180,0.2,0.4,74,0.00,,,0.00,WUHU216HW,2013-07-03 23:39:00,
2013-07-03 19:45:00,78.8,70.6,30.01,SSW,209,1.4,1.6,76,0.00,,,0.00,WUHU216HW,2013-07-03 23:45:00,
2013-07-03 19:51:00,78.7,70.5,30.01,SSW,204,0.4,0.7,76,0.00,,,0.00,WUHU216HW,2013-07-03 23:51:00,
2013-07-03 19:56:00,78.5,70.7,30.02,SSW,206,1.1,1.6,77,0.00,,,0.00,WUHU216HW,2013-07-03 23:56:00,
2013-07-03 20:01:00,77.8,70.0,30.02,West,277,1.8,2.9,77,0.02,,,0.02,WUHU216HW,2013-07-04 00:01:00,
2013-07-03 20:06:00,76.3,69.8,30.01,West,262,1.5,1.8,80,0.13,,,0.13,WUHU216HW,2013-07-04 00:06:00,
2013-07-03 20:11:00,75.2,69.2,30.01,WSW,239,0.6,1.1,81,0.13,,,0.13,WUHU216HW,2013-07-04 00:11:00,
2013-07-03 20:17:00,74.7,69.5,30.02,WSW,241,0.9,1.3,84,0.13,,,0.13,WUHU216HW,2013-07-04 00:17:00,
2013-07-03 20:22:00,74.3,69.4,30.02,SSW,206,1.7,2.2,85,0.13,,,0.13,WUHU216HW,2013-07-04 00:22:00,
2013-07-03 20:27:00,74.0,69.5,30.02,South,191,0.4,1.8,86,0.13,,,0.13,WUHU216HW,2013-07-04 00:27:00,
2013-07-03 20:33:00,73.6,69.1,30.01,SSW,203,1.4,1.8,86,0.13,,,0.13,WUHU216HW,2013-07-04 00:33:00,
2013-07-03 20:38:00,73.3,69.2,30.01,SW,225,0.0,0.4,87,0.13,,,0.13,WUHU216HW,2013-07-04 00:38:00,
2013-07-03 20:43:00,72.7,69.0,30.01,WSW,248,0.1,0.4,88,0.13,,,0.13,WUHU216HW,2013-07-04 00:43:00,
2013-07-03 20:48:00,72.4,68.7,30.01,ESE,113,0.3,0.9,88,0.13,,,0.13,WUHU216HW,2013-07-04 00:48:00,
2013-07-03 20:53:00,72.4,68.7,30.01,North,0,0.0,0.0,88,0.13,,,0.13,WUHU216HW,2013-07-04 00:53:00,
2013-07-03 20:59:00,72.2,68.5,30.01,North,0,0.0,0.0,88,0.11,,,0.13,WUHU216HW,2013-07-04 00:59:00,
2013-07-03 21:05:00,71.6,67.9,30.01,WSW,248,0.1,0.4,88,0.00,,,0.13,WUHU216HW,2013-07-04 01:05:00,
2013-07-03 21:10:00,71.3,68.0,30.01,North,0,0.0,0.0,89,0.00,,,0.13,WUHU216HW,2013-07-04 01:10:00,
2013-07-03 21:15:00,70.7,67.4,30.01,North,0,0.0,0.0,89,0.00,,,0.13,WUHU216HW,2013-07-04 01:15:00,
2013-07-03 21:21:00,70.4,67.1,30.02,North,0,0.0,0.0,89,0.00,,,0.13,WUHU216HW,2013-07-04 01:21:00,
2013-07-03 21:26:00,69.8,66.9,30.02,North,0,0.0,0.0,91,0.00,,,0.13,WUHU216HW,2013-07-04 01:26:00,
2013-07-03 21:31:00,69.7,66.8,30.02,North,0,0.0,0.0,91,0.00,,,0.13,WUHU216HW,2013-07-04 01:31:00,
2013-07-03 21:36:00,69.3,66.7,30.02,North,0,0.0,0.0,92,0.00,,,0.13,WUHU216HW,2013-07-04 01:36:00,
2013-07-03 21:41:00,68.8,66.2,30.02,North,0,0.0,0.0,92,0.00,,,0.13,WUHU216HW,2013-07-04 01:41:00,
2013-07-03 21:47:00,68.6,66.0,30.02,North,0,0.0,0.0,92,0.00,,,0.13,WUHU216HW,2013-07-04 01:47:00,
2013-07-03 21:52:00,68.2,66.0,30.02,North,0,0.0,0.0,93,0.00,,,0.13,WUHU216HW,2013-07-04 01:52:00,
2013-07-03 21:57:00,68.0,65.8,30.03,North,0,0.0,0.0,93,0.00,,,0.13,WUHU216HW,2013-07-04 01:57:00,
2013-07-03 22:02:00,67.7,65.5,30.03,North,0,0.0,0.0,93,0.00,,,0.13,WUHU216HW,2013-07-04 02:02:00,
2013-07-03 22:08:00,67.5,65.6,30.03,North,0,0.0,0.0,94,0.00,,,0.13,WUHU216HW,2013-07-04 02:08:00,
2013-07-03 22:13:00,67.3,65.4,30.03,North,0,0.0,0.0,94,0.00,,,0.13,WUHU216HW,2013-07-04 02:13:00,
2013-07-03 22:18:00,67.0,65.1,30.03,North,0,0.0,0.0,94,0.00,,,0.13,WUHU216HW,2013-07-04 02:18:00,
2013-07-03 22:24:00,66.8,65.3,30.04,WSW,248,0.3,0.7,95,0.00,,,0.13,WUHU216HW,2013-07-04 02:24:00,
2013-07-03 22:29:00,66.6,65.1,30.04,North,0,0.0,0.0,95,0.00,,,0.13,WUHU216HW,2013-07-04 02:29:00,
2013-07-03 22:34:00,66.6,65.4,30.04,North,0,0.0,0.0,96,0.00,,,0.13,WUHU216HW,2013-07-04 02:34:00,
2013-07-03 22:39:00,66.6,65.4,30.04,North,0,0.0,0.0,96,0.00,,,0.13,WUHU216HW,2013-07-04 02:39:00,
2013-07-03 22:44:00,66.6,65.4,30.04,North,0,0.0,0.0,96,0.00,,,0.13,WUHU216HW,2013-07-04 02:44:00,
2013-07-03 22:50:00,66.6,65.4,30.04,North,0,0.0,0.0,96,0.00,,,0.13,WUHU216HW,2013-07-04 02:50:00,
2013-07-03 22:55:00,66.6,65.4,30.04,North,0,0.0,0.0,96,0.00,,,0.13,WUHU216HW,2013-07-04 02:55:00,
2013-07-03 23:01:00,66.6,65.4,30.04,North,0,0.0,0.0,96,0.00,,,0.13,WUHU216HW,2013-07-04 03:01:00,
2013-07-03 23:06:00,66.6,65.4,30.04,North,0,0.0,0.0,96,0.00,,,0.13,WUHU216HW,2013-07-04 03:06:00,
2013-07-03 23:11:00,66.6,65.4,30.04,North,0,0.0,0.0,96,0.00,,,0.13,WUHU216HW,2013-07-04 03:11:00,
2013-07-03 23:16:00,66.4,65.6,30.04,North,0,0.0,0.0,97,0.00,,,0.13,WUHU216HW,2013-07-04 03:16:00,
2013-07-03 23:21:00,66.4,65.6,30.04,WSW,248,0.0,0.2,97,0.00,,,0.13,WUHU216HW,2013-07-04 03:21:00,
2013-07-03 23:26:00,66.2,65.4,30.04,North,0,0.0,0.0,97,0.00,,,0.13,WUHU216HW,2013-07-04 03:26:00,
2013-07-03 23:32:00,66.2,65.4,30.05,North,0,0.0,0.0,97,0.00,,,0.13,WUHU216HW,2013-07-04 03:32:00,
2013-07-03 23:38:00,66.2,65.4,30.04,North,0,0.0,0.0,97,0.00,,,0.13,WUHU216HW,2013-07-04 03:38:00,
2013-07-03 23:43:00,66.2,65.4,30.05,North,0,0.0,0.0,97,0.00,,,0.13,WUHU216HW,2013-07-04 03:43:00,
2013-07-03 23:48:00,66.1,65.6,30.05,North,0,0.0,0.0,99,0.00,,,0.13,WUHU216HW,2013-07-04 03:48:00,
2013-07-03 23:54:00,65.9,65.4,30.05,North,0,0.0,0.0,99,0.00,,,0.13,WUHU216HW,2013-07-04 03:54:00,
2013-07-03 23:59:00,65.7,65.2,30.05,North,0,0.0,0.0,99,0.00,,,0.13,WUHU216HW,2013-07-04 03:59:00,